| time (UTC) | temp F | wind direction | speed MPH | gust MPH | rain 1hr in | rain 24hr in | rain mn in | humidity % | barometer mb |
| 20260506023827 | 54 | 123 | 2.0 | 7.0 | 0.00 | 3.19 | 0.58 | 96 | 1003.6 |
| 20260506023312 | 54 | 111 | 3.0 | 10.0 | 0.00 | 3.19 | 0.58 | 96 | 1003.5 |
| 20260506022836 | 54 | 82 | 5.0 | 10.0 | 0.00 | 3.19 | 0.58 | 96 | 1003.5 |
| 20260506022318 | 54 | 76 | 4.0 | 12.0 | 0.04 | 3.19 | 0.58 | 96 | 1003.6 |
| 20260506021821 | 54 | 53 | 6.0 | 12.0 | 0.04 | 3.19 | 0.58 | 96 | 1003.6 |
| 20260506021322 | 54 | 45 | 6.0 | 12.0 | 0.04 | 3.19 | 0.58 | 96 | 1003.6 |
| 20260506020824 | 54 | 68 | 5.0 | 12.0 | 0.04 | 3.19 | 0.58 | 96 | 1003.6 |
| 20260506020346 | 54 | 139 | 5.0 | 13.0 | 0.08 | 3.19 | 0.58 | 96 | 1003.6 |
| 20260506015909 | 54 | 96 | 6.0 | 13.0 | 0.08 | 3.19 | 0.58 | 96 | 1003.6 |
| 20260506015347 | 55 | 68 | 6.0 | 13.0 | 0.08 | 3.19 | 0.58 | 96 | 1003.6 |
| 20260506014828 | 55 | 52 | 8.0 | 15.0 | 0.12 | 3.19 | 0.58 | 96 | 1003.6 |
| 20260506014328 | 55 | 34 | 6.0 | 15.0 | 0.12 | 3.19 | 0.58 | 96 | 1003.5 |
| 20260506013829 | 54 | 43 | 10.0 | 15.0 | 0.16 | 3.19 | 0.58 | 96 | 1003.6 |
| 20260506013330 | 55 | 46 | 9.0 | 16.0 | 0.20 | 3.19 | 0.58 | 96 | 1003.6 |
| 20260506012830 | 54 | 35 | 8.0 | 16.0 | 0.28 | 3.19 | 0.58 | 96 | 1003.6 |
| 20260506012331 | 55 | 53 | 9.0 | 17.0 | 0.31 | 3.15 | 0.57 | 96 | 1003.6 |
| 20260506011832 | 55 | 63 | 10.0 | 17.0 | 0.39 | 3.15 | 0.57 | 96 | 1003.8 |
| 20260506011313 | 55 | 65 | 8.0 | 14.0 | 0.47 | 3.15 | 0.57 | 96 | 1003.9 |
| 20260506010815 | 55 | 53 | 8.0 | 14.0 | 0.55 | 3.15 | 0.57 | 96 | 1003.9 |
| 20260506010318 | 55 | 75 | 7.0 | 14.0 | 0.63 | 3.11 | 0.57 | 96 | 1003.9 |
| 20260506005819 | 55 | 59 | 6.0 | 12.0 | 0.91 | 3.11 | 0.57 | 96 | 1003.9 |
| 20260506005318 | 55 | 37 | 6.0 | 11.0 | 1.02 | 3.11 | 0.57 | 96 | 1004.2 |
| 20260506004821 | 55 | 42 | 6.0 | 10.0 | 1.30 | 3.07 | 0.56 | 96 | 1004.5 |
| 20260506004314 | 56 | 67 | 4.0 | 9.0 | 1.69 | 3.07 | 0.56 | 96 | 1004.6 |
| 20260506003832 | 55 | 16 | 4.0 | 9.0 | 1.65 | 3.03 | 0.55 | 96 | 1004.8 |
| 20260506003332 | 56 | 359 | 3.0 | 8.0 | 1.57 | 2.95 | 0.54 | 96 | 1005.0 |
| 20260506002833 | 56 | 17 | 4.0 | 9.0 | 1.54 | 2.91 | 0.53 | 96 | 1005.0 |
| 20260506002332 | 56 | 32 | 5.0 | 9.0 | 1.46 | 2.83 | 0.51 | 96 | 1005.1 |
| 20260506001832 | 56 | 54 | 4.0 | 8.0 | 1.38 | 2.76 | 0.50 | 96 | 1005.3 |
| 20260506001314 | 55 | 25 | 3.0 | 5.0 | 1.30 | 2.68 | 0.48 | 96 | 1005.5 |
| 20260506000817 | 55 | 53 | 3.0 | 4.0 | 1.26 | 2.60 | 0.46 | 96 | 1005.7 |
| 20260506000322 | 55 | 17 | 3.0 | 4.0 | 1.14 | 2.48 | 0.44 | 96 | 1006.0 |
| 20260505235823 | 55 | 234 | 0.0 | 3.0 | 0.91 | 2.20 | 0.39 | 96 | 1006.4 |
| 20260505235325 | 55 | 219 | 1.0 | 7.0 | 0.75 | 2.05 | 0.35 | 96 | 1006.5 |
| 20260505234828 | 55 | 226 | 3.0 | 9.0 | 0.47 | 1.73 | 0.29 | 96 | 1006.5 |
| 20260505234350 | 55 | 270 | 4.0 | 9.0 | 0.16 | 1.38 | 0.22 | 96 | 1006.4 |
| 20260505233831 | 55 | 234 | 2.0 | 8.0 | 0.16 | 1.38 | 0.22 | 95 | 1006.1 |
| 20260505233312 | 55 | 65 | 4.0 | 9.0 | 0.16 | 1.38 | 0.22 | 95 | 1005.5 |
| 20260505232814 | 55 | 20 | 5.0 | 9.0 | 0.16 | 1.38 | 0.22 | 95 | 1005.3 |
| 20260505232335 | 55 | 23 | 4.0 | 9.0 | 0.20 | 1.38 | 0.22 | 95 | 1005.3 |
| 20260505231817 | 55 | 27 | 5.0 | 10.0 | 0.24 | 1.38 | 0.22 | 95 | 1005.3 |
| 20260505231319 | 56 | 13 | 3.0 | 10.0 | 0.75 | 1.38 | 0.22 | 95 | 1005.2 |
| 20260505230842 | 56 | 63 | 4.0 | 10.0 | 0.75 | 1.34 | 0.21 | 95 | 1005.1 |
| 20260505230322 | 56 | 36 | 4.0 | 12.0 | 0.79 | 1.34 | 0.21 | 95 | 1005.0 |
| 20260505225844 | 56 | 85 | 7.0 | 12.0 | 1.10 | 1.30 | 0.20 | 95 | 1004.9 |
| 20260505225323 | 56 | 25 | 4.0 | 7.0 | 1.06 | 1.26 | 0.20 | 95 | 1005.3 |
| 20260505224824 | 56 | 58 | 3.0 | 8.0 | 1.06 | 1.26 | 0.20 | 95 | 1005.6 |
| 20260505224327 | 56 | 51 | 4.0 | 8.0 | 1.02 | 1.22 | 0.19 | 94 | 1005.6 |
| 20260505223828 | 56 | 46 | 3.0 | 8.0 | 1.02 | 1.22 | 0.19 | 94 | 1005.5 |
| 20260505223350 | 56 | 32 | 4.0 | 8.0 | 1.02 | 1.22 | 0.19 | 94 | 1005.3 |
| 20260505222813 | 56 | 324 | 2.0 | 10.0 | 1.02 | 1.22 | 0.19 | 94 | 1005.2 |
| 20260505222315 | 56 | 11 | 5.0 | 12.0 | 0.98 | 1.18 | 0.18 | 93 | 1005.2 |
| 20260505221816 | 57 | 12 | 6.0 | 12.0 | 0.91 | 1.10 | 0.17 | 93 | 1005.5 |
| 20260505221318 | 57 | 59 | 4.0 | 6.0 | 0.43 | 0.63 | 0.07 | 92 | 1006.2 |
| 20260505220819 | 57 | 61 | 1.0 | 5.0 | 0.39 | 0.59 | 0.06 | 92 | 1006.3 |
| 20260505220339 | 57 | 41 | 2.0 | 5.0 | 0.35 | 0.55 | 0.06 | 91 | 1006.2 |
| 20260505215820 | 58 | 52 | 1.0 | 10.0 | 0.00 | 0.20 | 0.04 | 91 | 1006.2 |
| 20260505215342 | 57 | 49 | 4.0 | 10.0 | 0.00 | 0.20 | 0.04 | 91 | 1006.0 |
| 20260505214823 | 57 | 49 | 5.0 | 9.0 | 0.00 | 0.20 | 0.04 | 91 | 1006.3 |
| 20260505214325 | 57 | 67 | 4.0 | 8.0 | 0.00 | 0.20 | 0.04 | 91 | 1006.2 |
| 20260505213828 | 57 | 27 | 5.0 | 8.0 | 0.00 | 0.20 | 0.04 | 91 | 1006.2 |
| 20260505213331 | 58 | 49 | 4.0 | 8.0 | 0.00 | 0.20 | 0.04 | 91 | 1006.1 |
| 20260505212813 | 58 | 70 | 3.0 | 9.0 | 0.00 | 0.20 | 0.04 | 91 | 1005.9 |
| 20260505212317 | 58 | 65 | 4.0 | 10.0 | 0.00 | 0.20 | 0.04 | 90 | 1005.9 |
| 20260505211838 | 58 | 53 | 6.0 | 11.0 | 0.00 | 0.20 | 0.04 | 90 | 1006.0 |
| 20260505211340 | 58 | 42 | 5.0 | 12.0 | 0.00 | 0.20 | 0.04 | 90 | 1006.1 |
| 20260505210841 | 58 | 74 | 7.0 | 18.0 | 0.00 | 0.20 | 0.04 | 90 | 1006.1 |
| 20260505210321 | 58 | 60 | 10.0 | 18.0 | 0.00 | 0.20 | 0.04 | 89 | 1006.0 |
| 20260505205840 | 58 | 51 | 7.0 | 16.0 | 0.00 | 0.20 | 0.04 | 89 | 1006.0 |
| 20260505204821 | 59 | 69 | 7.0 | 16.0 | 0.00 | 0.20 | 0.04 | 89 | 1006.0 |
| 20260505204323 | 59 | 56 | 10.0 | 16.0 | 0.00 | 0.20 | 0.04 | 88 | 1005.9 |
| 20260505203321 | 59 | 49 | 7.0 | 12.0 | 0.00 | 0.20 | 0.04 | 88 | 1005.9 |
| 20260505202825 | 59 | 43 | 7.0 | 12.0 | 0.00 | 0.20 | 0.04 | 87 | 1005.9 |
| 20260505202327 | 59 | 57 | 6.0 | 10.0 | 0.00 | 0.20 | 0.04 | 87 | 1006.0 |
| 20260505201830 | 59 | 46 | 4.0 | 8.0 | 0.00 | 0.20 | 0.04 | 87 | 1006.0 |
| 20260505201332 | 60 | 31 | 4.0 | 9.0 | 0.00 | 0.20 | 0.04 | 87 | 1006.1 |
| 20260505200828 | 60 | 84 | 6.0 | 9.0 | 0.00 | 0.20 | 0.04 | 86 | 1006.0 |
| 20260505200328 | 60 | 43 | 4.0 | 10.0 | 0.00 | 0.20 | 0.04 | 86 | 1006.0 |
| 20260505195848 | 60 | 46 | 6.0 | 10.0 | 0.00 | 0.20 | 0.04 | 85 | 1006.0 |
| 20260505195326 | 60 | 45 | 5.0 | 10.0 | 0.00 | 0.20 | 0.04 | 85 | 1006.0 |
| 20260505194826 | 60 | 63 | 5.0 | 8.0 | 0.00 | 0.20 | 0.04 | 85 | 1005.9 |
| 20260505194327 | 60 | 42 | 3.0 | 7.0 | 0.00 | 0.20 | 0.04 | 86 | 1005.9 |
| 20260505193828 | 60 | 61 | 2.0 | 7.0 | 0.00 | 0.20 | 0.04 | 86 | 1005.9 |
| 20260505192830 | 61 | 60 | 3.0 | 6.0 | 0.00 | 0.20 | 0.04 | 87 | 1005.9 |
| 20260505192312 | 61 | 25 | 3.0 | 6.0 | 0.00 | 0.20 | 0.04 | 88 | 1005.9 |
| 20260505191815 | 61 | 49 | 2.0 | 7.0 | 0.00 | 0.20 | 0.04 | 87 | 1006.0 |
| 20260505191318 | 61 | 49 | 3.0 | 7.0 | 0.00 | 0.20 | 0.04 | 88 | 1006.0 |
| 20260505190820 | 61 | 58 | 3.0 | 7.0 | 0.00 | 0.20 | 0.04 | 87 | 1006.0 |
| 20260505190343 | 61 | 39 | 3.0 | 7.0 | 0.00 | 0.20 | 0.04 | 87 | 1006.1 |
| 20260505185824 | 62 | 41 | 3.0 | 7.0 | 0.00 | 0.20 | 0.04 | 86 | 1006.0 |
| 20260505185348 | 62 | 3 | 2.0 | 9.0 | 0.00 | 0.20 | 0.04 | 86 | 1006.0 |
| 20260505184828 | 62 | 25 | 4.0 | 9.0 | 0.00 | 0.20 | 0.04 | 85 | 1005.9 |
| 20260505184330 | 62 | 13 | 3.0 | 9.0 | 0.00 | 0.20 | 0.04 | 85 | 1005.8 |
| 20260505183814 | 62 | 45 | 3.0 | 8.0 | 0.00 | 0.20 | 0.04 | 85 | 1005.8 |
| 20260505183334 | 62 | 61 | 3.0 | 8.0 | 0.00 | 0.20 | 0.04 | 84 | 1005.9 |
| 20260505182324 | 63 | 15 | 3.0 | 8.0 | 0.00 | 0.20 | 0.04 | 83 | 1006.0 |
| 20260505181825 | 63 | 24 | 4.0 | 11.0 | 0.00 | 0.20 | 0.04 | 82 | 1006.0 |
| 20260505181325 | 63 | 351 | 4.0 | 11.0 | 0.00 | 0.20 | 0.04 | 81 | 1006.0 |
| 20260505180827 | 63 | 27 | 4.0 | 9.0 | 0.00 | 0.20 | 0.04 | 81 | 1006.1 |
| 20260505180329 | 64 | 52 | 4.0 | 9.0 | 0.00 | 0.20 | 0.04 | 82 | 1006.1 |
| 20260505175831 | 64 | 56 | 3.0 | 9.0 | 0.00 | 0.20 | 0.04 | 82 | 1006.1 |
| 20260505175313 | 64 | 51 | 4.0 | 9.0 | 0.00 | 0.20 | 0.04 | 81 | 1006.1 |
| 20260505174836 | 64 | 46 | 4.0 | 8.0 | 0.00 | 0.20 | 0.04 | 81 | 1006.2 |
| 20260505174320 | 64 | 58 | 4.0 | 8.0 | 0.00 | 0.20 | 0.04 | 81 | 1006.1 |
| 20260505173825 | 64 | 33 | 5.0 | 8.0 | 0.00 | 0.20 | 0.04 | 80 | 1006.1 |
| 20260505173328 | 65 | 53 | 2.0 | 8.0 | 0.00 | 0.20 | 0.04 | 80 | 1006.1 |
| 20260505172825 | 65 | 46 | 2.0 | 8.0 | 0.00 | 0.20 | 0.04 | 80 | 1006.1 |
| 20260505172330 | 65 | 33 | 2.0 | 9.0 | 0.00 | 0.20 | 0.04 | 79 | 1006.1 |
| 20260505171814 | 65 | 51 | 2.0 | 9.0 | 0.00 | 0.20 | 0.04 | 79 | 1006.1 |
| 20260505171317 | 65 | 36 | 2.0 | 4.0 | 0.00 | 0.20 | 0.04 | 79 | 1006.1 |
| 20260505170841 | 65 | 22 | 2.0 | 5.0 | 0.00 | 0.20 | 0.04 | 80 | 1006.2 |
| 20260505170324 | 65 | 51 | 2.0 | 5.0 | 0.00 | 0.20 | 0.04 | 79 | 1006.2 |
| 20260505165825 | 66 | 65 | 2.0 | 5.0 | 0.00 | 0.20 | 0.04 | 79 | 1006.2 |
| 20260505165324 | 66 | 20 | 3.0 | 8.0 | 0.00 | 0.20 | 0.04 | 79 | 1006.1 |
| 20260505164825 | 66 | 52 | 4.0 | 8.0 | 0.00 | 0.20 | 0.04 | 78 | 1006.1 |
| 20260505164324 | 65 | 6 | 4.0 | 6.0 | 0.00 | 0.20 | 0.04 | 78 | 1006.3 |
| 20260505163825 | 65 | 68 | 3.0 | 7.0 | 0.00 | 0.20 | 0.04 | 79 | 1006.4 |
| 20260505163324 | 65 | 3 | 4.0 | 8.0 | 0.00 | 0.20 | 0.04 | 79 | 1006.4 |
| 20260505162824 | 65 | 51 | 3.0 | 8.0 | 0.00 | 0.20 | 0.04 | 80 | 1006.4 |
| 20260505162324 | 65 | 46 | 4.0 | 8.0 | 0.00 | 0.20 | 0.04 | 79 | 1006.4 |
| 20260505161845 | 65 | 44 | 4.0 | 9.0 | 0.00 | 0.20 | 0.04 | 79 | 1006.5 |
| 20260505161325 | 65 | 45 | 5.0 | 9.0 | 0.00 | 0.20 | 0.04 | 80 | 1006.5 |
| 20260505160828 | 65 | 82 | 3.0 | 8.0 | 0.00 | 0.20 | 0.04 | 80 | 1006.5 |
| 20260505160351 | 65 | 58 | 4.0 | 7.0 | 0.00 | 0.20 | 0.04 | 80 | 1006.5 |
| 20260505153323 | 66 | 46 | 5.0 | 7.0 | 0.00 | 0.20 | 0.04 | 78 | 1006.7 |
| 20260505152826 | 66 | 45 | 4.0 | 7.0 | 0.00 | 0.20 | 0.04 | 78 | 1006.8 |
| 20260505152348 | 66 | 24 | 2.0 | 6.0 | 0.00 | 0.20 | 0.04 | 79 | 1006.8 |
| 20260505151830 | 65 | 27 | 3.0 | 7.0 | 0.00 | 0.20 | 0.04 | 80 | 1006.8 |
| 20260505151313 | 65 | 26 | 3.0 | 7.0 | 0.00 | 0.20 | 0.04 | 79 | 1006.8 |
| 20260505150816 | 65 | 18 | 4.0 | 8.0 | 0.00 | 0.20 | 0.04 | 78 | 1006.8 |
| 20260505150340 | 65 | 32 | 4.0 | 8.0 | 0.00 | 0.20 | 0.04 | 80 | 1006.8 |
| 20260505140319 | 65 | 23 | 2.0 | 11.0 | 0.00 | 0.20 | 0.04 | 78 | 1007.2 |
| 20260505124842 | 65 | 21 | 5.0 | 9.0 | 0.00 | 0.20 | 0.04 | 80 | 1007.6 |
| 20260505124344 | 65 | 319 | 5.0 | 9.0 | 0.00 | 0.20 | 0.04 | 79 | 1007.7 |
| 20260505123844 | 65 | 340 | 4.0 | 9.0 | 0.00 | 0.20 | 0.04 | 81 | 1007.6 |
| 20260505123326 | 65 | 319 | 4.0 | 8.0 | 0.00 | 0.20 | 0.04 | 83 | 1007.6 |
| 20260505122332 | 64 | 337 | 5.0 | 11.0 | 0.00 | 0.20 | 0.04 | 83 | 1007.8 |
| 20260505121816 | 64 | 18 | 4.0 | 11.0 | 0.00 | 0.20 | 0.04 | 83 | 1007.8 |
| 20260505121319 | 64 | 29 | 3.0 | 10.0 | 0.00 | 0.20 | 0.04 | 84 | 1007.8 |
| 20260505120822 | 64 | 25 | 4.0 | 9.0 | 0.00 | 0.20 | 0.04 | 83 | 1007.8 |
| 20260505120343 | 64 | 343 | 4.0 | 9.0 | 0.00 | 0.20 | 0.04 | 82 | 1007.9 |
| 20260505115824 | 65 | 359 | 3.0 | 8.0 | 0.00 | 0.20 | 0.04 | 82 | 1008.0 |
| 20260505115328 | 65 | 46 | 4.0 | 8.0 | 0.00 | 0.20 | 0.04 | 81 | 1007.9 |
| 20260505114814 | 65 | 35 | 5.0 | 8.0 | 0.00 | 0.20 | 0.04 | 80 | 1008.0 |
| 20260505114313 | 65 | 47 | 3.0 | 10.0 | 0.00 | 0.20 | 0.04 | 83 | 1007.9 |
| 20260505113814 | 64 | 32 | 5.0 | 10.0 | 0.00 | 0.20 | 0.04 | 82 | 1007.9 |
| 20260505113315 | 64 | 355 | 3.0 | 8.0 | 0.00 | 0.20 | 0.04 | 85 | 1007.9 |
| 20260505112838 | 64 | 354 | 5.0 | 8.0 | 0.00 | 0.20 | 0.04 | 84 | 1008.0 |
| 20260505112320 | 64 | 23 | 3.0 | 9.0 | 0.00 | 0.20 | 0.04 | 86 | 1008.0 |
| 20260505111822 | 64 | 2 | 4.0 | 8.0 | 0.00 | 0.20 | 0.04 | 88 | 1008.0 |
| 20260505111322 | 64 | 20 | 4.0 | 6.0 | 0.00 | 0.20 | 0.04 | 88 | 1008.0 |
| 20260505110823 | 63 | 345 | 4.0 | 9.0 | 0.00 | 0.20 | 0.04 | 89 | 1008.1 |
| 20260505110327 | 63 | 23 | 5.0 | 9.0 | 0.00 | 0.20 | 0.04 | 89 | 1008.1 |
| 20260505101826 | 62 | 4 | 3.0 | 6.0 | 0.00 | 0.20 | 0.04 | 92 | 1008.3 |
| 20260505101327 | 62 | 340 | 2.0 | 4.0 | 0.00 | 0.20 | 0.04 | 91 | 1008.2 |
| 20260505100827 | 62 | 57 | 2.0 | 4.0 | 0.00 | 0.20 | 0.04 | 91 | 1008.1 |
| 20260505100327 | 62 | 25 | 1.0 | 3.0 | 0.00 | 0.20 | 0.04 | 91 | 1008.2 |
| 20260505095850 | 61 | 27 | 0.0 | 4.0 | 0.00 | 0.20 | 0.04 | 91 | 1008.3 |
| 20260505095331 | 61 | 19 | 1.0 | 4.0 | 0.00 | 0.20 | 0.04 | 91 | 1008.3 |
| 20260505094831 | 61 | 65 | 1.0 | 3.0 | 0.04 | 0.20 | 0.04 | 91 | 1008.4 |
| 20260505094352 | 61 | 48 | 2.0 | 4.0 | 0.04 | 0.20 | 0.04 | 91 | 1008.4 |
| 20260505093831 | 61 | 49 | 3.0 | 4.0 | 0.04 | 0.20 | 0.04 | 90 | 1008.6 |
| 20260505093330 | 61 | 8 | 0.0 | 2.0 | 0.04 | 0.20 | 0.04 | 91 | 1008.7 |
| 20260505092825 | 61 | 7 | 1.0 | 4.0 | 0.04 | 0.20 | 0.04 | 92 | 1008.5 |
| 20260505092345 | 61 | 7 | 1.0 | 4.0 | 0.04 | 0.20 | 0.04 | 91 | 1008.5 |
| 20260505091826 | 61 | 14 | 2.0 | 6.0 | 0.08 | 0.20 | 0.04 | 92 | 1008.5 |
| 20260505091325 | 61 | 353 | 2.0 | 6.0 | 0.12 | 0.20 | 0.04 | 92 | 1008.5 |
| 20260505090847 | 61 | 42 | 3.0 | 6.0 | 0.12 | 0.20 | 0.04 | 92 | 1008.6 |
| 20260505090329 | 61 | 354 | 2.0 | 6.0 | 0.12 | 0.20 | 0.04 | 92 | 1008.5 |
| 20260505085851 | 60 | 33 | 1.0 | 6.0 | 0.12 | 0.20 | 0.04 | 92 | 1008.6 |
| 20260505085313 | 60 | 23 | 4.0 | 6.0 | 0.12 | 0.20 | 0.04 | 92 | 1008.5 |
| 20260505084814 | 60 | 37 | 2.0 | 3.0 | 0.12 | 0.16 | 0.03 | 91 | 1008.3 |
| 20260505084315 | 60 | 4 | 2.0 | 3.0 | 0.12 | 0.16 | 0.03 | 91 | 1008.4 |
| 20260505083816 | 60 | 20 | 2.0 | 3.0 | 0.12 | 0.16 | 0.03 | 90 | 1008.5 |
| 20260505083318 | 60 | 37 | 1.0 | 3.0 | 0.12 | 0.16 | 0.03 | 90 | 1008.5 |
| 20260505082838 | 60 | 31 | 1.0 | 2.0 | 0.12 | 0.16 | 0.03 | 90 | 1008.5 |
| 20260505082320 | 60 | 60 | 1.0 | 2.0 | 0.12 | 0.16 | 0.03 | 90 | 1008.5 |
| 20260505081823 | 60 | 98 | 1.0 | 2.0 | 0.08 | 0.12 | 0.02 | 89 | 1008.6 |
| 20260505081325 | 60 | 116 | 1.0 | 2.0 | 0.08 | 0.08 | 0.02 | 88 | 1008.6 |
| 20260505080828 | 60 | 131 | 1.0 | 2.0 | 0.08 | 0.08 | 0.02 | 87 | 1008.6 |
| 20260505080329 | 61 | 131 | 0.0 | 0.0 | 0.08 | 0.08 | 0.02 | 88 | 1008.8 |
| 20260505075831 | 61 | 131 | 0.0 | 2.0 | 0.08 | 0.08 | 0.02 | 88 | 1008.9 |
| 20260505075333 | 61 | 131 | 0.0 | 2.0 | 0.08 | 0.08 | 0.02 | 87 | 1008.8 |
| 20260505074851 | 61 | 118 | 0.0 | 2.0 | 0.04 | 0.04 | 0.01 | 87 | 1008.8 |
| 20260505074353 | 61 | 123 | 0.0 | 2.0 | 0.04 | 0.04 | 0.01 | 87 | 1008.9 |
| 20260505073834 | 61 | 60 | 0.0 | 1.0 | 0.04 | 0.04 | 0.01 | 87 | 1008.9 |
| 20260505073332 | 61 | 60 | 0.0 | 2.0 | 0.04 | 0.04 | 0.01 | 88 | 1008.8 |
| 20260505072830 | 61 | 60 | 1.0 | 2.0 | 0.04 | 0.04 | 0.01 | 88 | 1008.8 |
| 20260505072329 | 61 | 60 | 0.0 | 3.0 | 0.04 | 0.04 | 0.01 | 87 | 1008.8 |
| 20260505071830 | 61 | 59 | 1.0 | 3.0 | 0.04 | 0.04 | 0.01 | 87 | 1008.7 |
| 20260505071329 | 61 | 59 | 1.0 | 3.0 | 0.00 | 0.00 | 0.00 | 86 | 1008.8 |
| 20260505070852 | 61 | 65 | 1.0 | 3.0 | 0.00 | 0.00 | 0.00 | 85 | 1008.8 |
| 20260505070318 | 61 | 63 | 1.0 | 3.0 | 0.00 | 0.00 | 0.00 | 85 | 1008.8 |
| 20260505065842 | 61 | 63 | 0.0 | 2.0 | 0.00 | 0.00 | 0.00 | 85 | 1008.8 |
| 20260505065324 | 61 | 63 | 0.0 | 2.0 | 0.00 | 0.00 | 0.00 | 85 | 1008.9 |
| 20260505064827 | 61 | 63 | 0.0 | 2.0 | 0.00 | 0.00 | 0.00 | 85 | 1008.9 |
| 20260505064331 | 61 | 63 | 1.0 | 2.0 | 0.00 | 0.00 | 0.00 | 85 | 1008.8 |
| 20260505063830 | 61 | 63 | 0.0 | 2.0 | 0.00 | 0.00 | 0.00 | 85 | 1008.9 |
| 20260505063332 | 61 | 63 | 0.0 | 2.0 | 0.00 | 0.00 | 0.00 | 84 | 1008.9 |
| 20260505062831 | 61 | 63 | 1.0 | 3.0 | 0.00 | 0.00 | 0.00 | 84 | 1008.9 |
| 20260505062331 | 61 | 63 | 2.0 | 4.0 | 0.00 | 0.00 | 0.00 | 84 | 1008.8 |
| 20260505061339 | 61 | 63 | 1.0 | 5.0 | 0.00 | 0.00 | 0.00 | 83 | 1008.8 |
| 20260505060818 | 61 | 6 | 3.0 | 5.0 | 0.00 | 0.00 | 0.00 | 83 | 1008.8 |
| 20260505060321 | 61 | 20 | 2.0 | 3.0 | 0.00 | 0.00 | 0.00 | 83 | 1008.7 |
| 20260505055823 | 60 | 44 | 2.0 | 4.0 | 0.00 | 0.00 | 0.00 | 84 | 1008.7 |
| 20260505055326 | 60 | 45 | 2.0 | 4.0 | 0.00 | 0.00 | 0.00 | 84 | 1008.7 |
| 20260505054842 | 60 | 52 | 2.0 | 4.0 | 0.00 | 0.00 | 0.00 | 83 | 1008.6 |
| 20260505054324 | 60 | 26 | 1.0 | 2.0 | 0.00 | 0.00 | 0.00 | 84 | 1008.6 |
| 20260505053827 | 60 | 44 | 1.0 | 3.0 | 0.00 | 0.00 | 0.00 | 84 | 1008.6 |
| 20260505053330 | 60 | 42 | 2.0 | 7.0 | 0.00 | 0.00 | 0.00 | 84 | 1008.5 |
| 20260505052814 | 60 | 49 | 3.0 | 7.0 | 0.00 | 0.00 | 0.00 | 84 | 1008.5 |
| 20260505052338 | 60 | 36 | 5.0 | 8.0 | 0.00 | 0.00 | 0.00 | 84 | 1008.5 |
| 20260505051819 | 59 | 58 | 3.0 | 6.0 | 0.00 | 0.00 | 0.00 | 84 | 1008.5 |
| 20260505051340 | 59 | 31 | 3.0 | 7.0 | 0.00 | 0.00 | 0.00 | 84 | 1008.6 |
| 20260505050822 | 59 | 67 | 2.0 | 7.0 | 0.00 | 0.00 | 0.00 | 85 | 1008.7 |
| 20260505050324 | 59 | 57 | 3.0 | 7.0 | 0.00 | 0.00 | 0.00 | 85 | 1008.7 |
| 20260505041314 | 59 | 27 | 1.0 | 3.0 | 0.00 | 0.00 | 0.00 | 85 | 1009.0 |
| 20260505040904 | 59 | 6 | 1.0 | 5.0 | 0.00 | 0.00 | 0.00 | 85 | 1009.0 |
| 20260505040328 | 59 | 16 | 2.0 | 7.0 | 0.00 | 0.00 | 0.00 | 84 | 1009.0 |
| 20260505035830 | 59 | 34 | 4.0 | 7.0 | 0.00 | 0.00 | 0.00 | 84 | 1009.0 |
| 20260505035331 | 59 | 57 | 2.0 | 5.0 | 0.00 | 0.00 | 0.00 | 84 | 1009.0 |
| 20260505034813 | 59 | 40 | 2.0 | 6.0 | 0.00 | 0.00 | 0.00 | 84 | 1008.9 |
| 20260505034326 | 59 | 56 | 3.0 | 6.0 | 0.00 | 0.00 | 0.00 | 84 | 1008.9 |
| 20260505033827 | 59 | 41 | 3.0 | 6.0 | 0.00 | 0.00 | 0.00 | 83 | 1008.9 |
| 20260505033328 | 59 | 70 | 3.0 | 4.0 | 0.00 | 0.00 | 0.00 | 83 | 1008.9 |
| 20260505032829 | 60 | 33 | 3.0 | 5.0 | 0.00 | 0.00 | 0.00 | 83 | 1008.9 |
| 20260505032329 | 60 | 60 | 3.0 | 5.0 | 0.00 | 0.00 | 0.00 | 83 | 1009.0 |
| 20260505031822 | 60 | 46 | 2.0 | 3.0 | 0.00 | 0.00 | 0.00 | 83 | 1009.2 |
| 20260505031323 | 60 | 44 | 1.0 | 3.0 | 0.00 | 0.00 | 0.00 | 83 | 1009.4 |
| 20260505030843 | 60 | 62 | 1.0 | 3.0 | 0.00 | 0.00 | 0.00 | 83 | 1009.4 |
| 20260505030344 | 60 | 62 | 1.0 | 3.0 | 0.00 | 0.00 | 0.00 | 83 | 1009.5 |
| 20260505025826 | 60 | 62 | 1.0 | 3.0 | 0.00 | 0.00 | 0.00 | 83 | 1009.5 |
| 20260505025348 | 60 | 65 | 2.0 | 4.0 | 0.00 | 0.00 | 0.00 | 83 | 1009.4 |
| 20260505024830 | 60 | 65 | 2.0 | 5.0 | 0.00 | 0.00 | 0.00 | 83 | 1009.4 |
| 20260505024313 | 60 | 50 | 3.0 | 5.0 | 0.00 | 0.00 | 0.00 | 82 | 1009.3 |